Time,TemperatureF,DewpointF,PressureIn,WindDirection,WindDirectionDegrees,WindSpeedMPH,WindSpeedGustMPH,Humidity,HourlyPrecipIn,Conditions,Clouds,dailyrainin,SoftwareType,DateUTC
2013-07-17 00:02:00,78.0,72.0,30.23,SW,215,0.0,2.0,83,0.00,,,0.00,,2013-07-17 05:02:00,
2013-07-17 00:11:00,78.0,72.0,30.23,SW,234,0.0,8.0,83,0.00,,,0.00,,2013-07-17 05:11:00,
2013-07-17 00:22:00,78.0,72.0,30.23,SW,234,0.0,8.0,83,0.00,,,0.00,,2013-07-17 05:22:00,
2013-07-17 00:32:00,78.0,72.0,30.23,SW,234,0.0,3.0,83,0.00,,,0.00,,2013-07-17 05:32:00,
2013-07-17 00:43:00,77.0,71.0,30.23,SW,234,1.0,2.0,83,0.00,,,0.00,,2013-07-17 05:43:00,
2013-07-17 00:52:00,77.0,71.0,30.23,SW,234,1.0,2.0,83,0.00,,,0.00,,2013-07-17 05:52:00,
2013-07-17 01:01:00,77.0,71.0,30.23,SW,234,0.0,2.0,83,0.00,,,0.00,,2013-07-17 06:01:00,
2013-07-17 01:11:00,77.0,71.0,30.23,SW,234,0.0,2.0,83,0.00,,,0.00,,2013-07-17 06:11:00,
2013-07-17 01:22:00,77.0,71.0,30.23,SW,234,0.0,2.0,83,0.00,,,0.00,,2013-07-17 06:22:00,
2013-07-17 01:32:00,77.0,71.0,30.23,SW,234,0.0,3.0,83,0.00,,,0.00,,2013-07-17 06:32:00,
2013-07-17 01:43:00,77.0,72.0,30.23,WSW,251,0.0,8.0,84,0.00,,,0.00,,2013-07-17 06:43:00,
2013-07-17 01:52:00,77.0,72.0,30.23,WSW,251,0.0,8.0,84,0.00,,,0.00,,2013-07-17 06:52:00,
2013-07-17 02:01:00,76.0,71.0,30.22,WSW,250,0.0,3.0,84,0.00,,,0.00,,2013-07-17 07:01:00,
2013-07-17 02:11:00,76.0,71.0,30.22,WSW,250,0.0,3.0,84,0.00,,,0.00,,2013-07-17 07:11:00,
2013-07-17 02:22:00,76.0,71.0,30.22,ESE,105,0.0,6.0,85,0.00,,,0.00,,2013-07-17 07:22:00,
2013-07-17 02:32:00,76.0,71.0,30.23,South,171,0.0,3.0,85,0.00,,,0.00,,2013-07-17 07:32:00,
2013-07-17 02:42:00,76.0,71.0,30.23,South,178,0.0,2.0,85,0.00,,,0.00,,2013-07-17 07:42:00,
2013-07-17 02:52:00,76.0,71.0,30.23,South,178,0.0,2.0,85,0.00,,,0.00,,2013-07-17 07:52:00,
2013-07-17 03:01:00,75.0,71.0,30.23,South,178,0.0,1.0,86,0.00,,,0.00,,2013-07-17 08:01:00,
2013-07-17 03:11:00,75.0,71.0,30.23,West,267,0.0,5.0,86,0.00,,,0.00,,2013-07-17 08:11:00,
2013-07-17 03:22:00,75.0,71.0,30.23,West,267,0.0,5.0,86,0.00,,,0.00,,2013-07-17 08:22:00,
2013-07-17 03:32:00,75.0,71.0,30.23,West,267,0.0,1.0,86,0.00,,,0.00,,2013-07-17 08:32:00,
2013-07-17 03:43:00,75.0,70.0,30.24,SW,219,1.0,3.0,85,0.00,,,0.00,,2013-07-17 08:43:00,
2013-07-17 03:53:00,75.0,70.0,30.24,SW,219,1.0,3.0,85,0.00,,,0.00,,2013-07-17 08:53:00,
2013-07-17 04:02:00,75.0,70.0,30.23,West,268,0.0,2.0,85,0.00,,,0.00,,2013-07-17 09:02:00,
2013-07-17 04:12:00,75.0,70.0,30.23,West,268,0.0,2.0,85,0.00,,,0.00,,2013-07-17 09:12:00,
2013-07-17 04:22:00,75.0,70.0,30.23,West,268,0.0,2.0,85,0.00,,,0.00,,2013-07-17 09:22:00,
2013-07-17 04:32:00,75.0,70.0,30.23,West,261,2.0,6.0,85,0.00,,,0.00,,2013-07-17 09:32:00,
2013-07-17 04:43:00,75.0,70.0,30.24,West,263,0.0,2.0,84,0.00,,,0.00,,2013-07-17 09:43:00,
2013-07-17 04:52:00,75.0,70.0,30.24,West,263,0.0,2.0,84,0.00,,,0.00,,2013-07-17 09:52:00,
2013-07-17 05:01:00,75.0,70.0,30.24,West,263,0.0,1.0,85,0.00,,,0.00,,2013-07-17 10:01:00,
2013-07-17 05:11:00,75.0,70.0,30.24,West,263,0.0,2.0,85,0.00,,,0.00,,2013-07-17 10:11:00,
2013-07-17 05:22:00,75.0,70.0,30.24,West,263,0.0,2.0,85,0.00,,,0.00,,2013-07-17 10:22:00,
2013-07-17 05:32:00,75.0,71.0,30.24,West,263,0.0,1.0,86,0.00,,,0.00,,2013-07-17 10:32:00,
2013-07-17 05:43:00,75.0,70.0,30.24,West,261,0.0,1.0,85,0.00,,,0.00,,2013-07-17 10:43:00,
2013-07-17 05:52:00,75.0,70.0,30.24,West,261,0.0,1.0,85,0.00,,,0.00,,2013-07-17 10:52:00,
2013-07-17 06:02:00,75.0,70.0,30.25,West,261,0.0,1.0,85,0.00,,,0.00,,2013-07-17 11:02:00,
2013-07-17 06:11:00,75.0,70.0,30.25,West,261,0.0,1.0,85,0.00,,,0.00,,2013-07-17 11:11:00,
2013-07-17 06:22:00,75.0,70.0,30.25,West,261,0.0,2.0,85,0.00,,,0.00,,2013-07-17 11:22:00,
2013-07-17 06:32:00,74.0,70.0,30.25,South,182,0.0,3.0,86,0.00,,,0.00,,2013-07-17 11:32:00,
2013-07-17 06:42:00,74.0,70.0,30.26,SW,215,0.0,3.0,86,0.00,,,0.00,,2013-07-17 11:42:00,
2013-07-17 06:52:00,74.0,70.0,30.26,SW,215,0.0,3.0,86,0.00,,,0.00,,2013-07-17 11:52:00,
2013-07-17 07:01:00,75.0,71.0,30.26,SW,215,0.0,2.0,86,0.00,,,0.00,,2013-07-17 12:01:00,
2013-07-17 07:12:00,76.0,71.0,30.26,SW,215,0.0,0.0,85,0.00,,,0.00,,2013-07-17 12:12:00,
2013-07-17 07:22:00,76.0,71.0,30.26,SW,215,0.0,0.0,85,0.00,,,0.00,,2013-07-17 12:22:00,
2013-07-17 07:32:00,76.0,71.0,30.26,SW,220,0.0,2.0,84,0.00,,,0.00,,2013-07-17 12:32:00,
2013-07-17 07:42:00,78.0,72.0,30.26,West,270,1.0,5.0,83,0.00,,,0.00,,2013-07-17 12:42:00,
2013-07-17 07:53:00,78.0,72.0,30.26,West,270,1.0,5.0,83,0.00,,,0.00,,2013-07-17 12:53:00,
2013-07-17 08:01:00,78.0,72.0,30.27,WSW,238,1.0,3.0,81,0.00,,,0.00,,2013-07-17 13:01:00,
2013-07-17 08:12:00,79.0,73.0,30.27,SW,223,0.0,4.0,82,0.00,,,0.00,,2013-07-17 13:12:00,
2013-07-17 08:22:00,79.0,73.0,30.27,SW,223,0.0,4.0,82,0.00,,,0.00,,2013-07-17 13:22:00,
2013-07-17 08:32:00,80.0,73.0,30.27,West,268,1.0,4.0,79,0.00,,,0.00,,2013-07-17 13:32:00,
2013-07-17 08:43:00,81.0,73.0,30.28,West,262,2.0,6.0,76,0.00,,,0.00,,2013-07-17 13:43:00,
2013-07-17 08:52:00,81.0,73.0,30.28,West,262,2.0,6.0,76,0.00,,,0.00,,2013-07-17 13:52:00,
2013-07-17 09:02:00,82.0,74.0,30.27,West,259,2.0,5.0,76,0.00,,,0.00,,2013-07-17 14:02:00,
2013-07-17 09:11:00,82.0,74.0,30.27,West,259,2.0,5.0,76,0.00,,,0.00,,2013-07-17 14:11:00,
2013-07-17 09:22:00,83.0,75.0,30.27,WNW,293,1.0,8.0,76,0.00,,,0.00,,2013-07-17 14:22:00,
2013-07-17 09:32:00,83.0,74.0,30.27,West,268,0.0,6.0,75,0.00,,,0.00,,2013-07-17 14:32:00,
2013-07-17 09:43:00,84.0,74.0,30.27,WSW,255,1.0,7.0,73,0.00,,,0.00,,2013-07-17 14:43:00,
2013-07-17 09:52:00,84.0,74.0,30.27,WSW,255,1.0,7.0,73,0.00,,,0.00,,2013-07-17 14:52:00,
2013-07-17 10:01:00,85.0,75.0,30.27,WSW,244,3.0,7.0,71,0.00,,,0.00,,2013-07-17 15:01:00,
2013-07-17 10:12:00,85.0,75.0,30.26,West,266,1.0,6.0,71,0.00,,,0.00,,2013-07-17 15:12:00,
2013-07-17 10:22:00,85.0,75.0,30.26,West,266,1.0,6.0,71,0.00,,,0.00,,2013-07-17 15:22:00,
2013-07-17 10:32:00,86.0,75.0,30.26,West,270,3.0,5.0,70,0.00,,,0.00,,2013-07-17 15:32:00,
2013-07-17 10:42:00,86.0,75.0,30.25,North,10,0.0,5.0,71,0.00,,,0.00,,2013-07-17 15:42:00,
2013-07-17 10:52:00,86.0,75.0,30.25,North,10,0.0,5.0,71,0.00,,,0.00,,2013-07-17 15:52:00,
2013-07-17 11:02:00,87.0,75.0,30.25,SSW,213,2.0,6.0,68,0.00,,,0.00,,2013-07-17 16:02:00,
2013-07-17 11:11:00,87.0,76.0,30.25,West,272,0.0,6.0,69,0.00,,,0.00,,2013-07-17 16:11:00,
2013-07-17 11:22:00,87.0,76.0,30.25,West,272,0.0,6.0,69,0.00,,,0.00,,2013-07-17 16:22:00,
2013-07-17 11:33:00,87.0,75.0,30.25,West,275,0.0,5.0,67,0.00,,,0.00,,2013-07-17 16:33:00,
2013-07-17 11:42:00,88.0,74.0,30.25,NNW,327,0.0,5.0,63,0.00,,,0.00,,2013-07-17 16:42:00,
2013-07-17 11:52:00,88.0,74.0,30.25,NNW,327,0.0,5.0,63,0.00,,,0.00,,2013-07-17 16:52:00,
2013-07-17 12:02:00,88.0,77.0,30.25,WNW,294,1.0,5.0,69,0.00,,,0.00,,2013-07-17 17:02:00,
2013-07-17 12:11:00,88.0,77.0,30.25,WNW,294,1.0,5.0,69,0.00,,,0.00,,2013-07-17 17:11:00,
2013-07-17 12:22:00,89.0,74.0,30.25,West,272,3.0,9.0,61,0.00,,,0.00,,2013-07-17 17:22:00,
2013-07-17 12:32:00,88.0,73.0,30.24,SW,221,1.0,5.0,62,0.00,,,0.00,,2013-07-17 17:32:00,
2013-07-17 12:43:00,88.0,73.0,30.24,SW,221,1.0,5.0,62,0.00,,,0.00,,2013-07-17 17:43:00,
2013-07-17 12:52:00,89.0,74.0,30.24,West,264,2.0,5.0,61,0.00,,,0.00,,2013-07-17 17:52:00,
2013-07-17 13:01:00,89.0,72.0,30.23,South,184,2.0,7.0,58,0.00,,,0.00,,2013-07-17 18:01:00,
2013-07-17 13:11:00,89.0,72.0,30.23,South,184,2.0,7.0,58,0.00,,,0.00,,2013-07-17 18:11:00,
2013-07-17 13:22:00,89.0,74.0,30.23,South,188,2.0,7.0,61,0.00,,,0.00,,2013-07-17 18:22:00,
2013-07-17 13:32:00,90.0,73.0,30.22,WSW,246,2.0,6.0,57,0.00,,,0.00,,2013-07-17 18:32:00,
2013-07-17 13:43:00,90.0,73.0,30.22,WSW,246,2.0,6.0,57,0.00,,,0.00,,2013-07-17 18:43:00,
2013-07-17 13:52:00,90.0,73.0,30.22,WSW,241,2.0,6.0,58,0.00,,,0.00,,2013-07-17 18:52:00,
2013-07-17 14:01:00,91.0,74.0,30.22,WSW,254,3.0,8.0,57,0.00,,,0.00,,2013-07-17 19:01:00,
2013-07-17 14:11:00,91.0,74.0,30.22,WSW,254,3.0,8.0,57,0.00,,,0.00,,2013-07-17 19:11:00,
2013-07-17 14:22:00,90.0,73.0,30.22,WNW,286,1.0,6.0,57,0.00,,,0.00,,2013-07-17 19:22:00,
2013-07-17 14:32:00,91.0,75.0,30.21,West,262,3.0,6.0,59,0.00,,,0.00,,2013-07-17 19:32:00,
2013-07-17 14:43:00,91.0,75.0,30.21,West,262,3.0,6.0,59,0.00,,,0.00,,2013-07-17 19:43:00,
2013-07-17 14:53:00,90.0,74.0,30.20,WSW,252,1.0,7.0,59,0.00,,,0.00,,2013-07-17 19:53:00,
2013-07-17 15:02:00,91.0,73.0,30.20,West,279,2.0,7.0,55,0.00,,,0.00,,2013-07-17 20:02:00,
2013-07-17 15:11:00,91.0,73.0,30.20,West,279,2.0,7.0,55,0.00,,,0.00,,2013-07-17 20:11:00,
2013-07-17 15:22:00,91.0,74.0,30.19,SSW,193,3.0,6.0,57,0.00,,,0.00,,2013-07-17 20:22:00,
2013-07-17 15:33:00,92.0,75.0,30.19,West,275,3.0,7.0,57,0.00,,,0.00,,2013-07-17 20:33:00,
2013-07-17 15:43:00,92.0,75.0,30.19,West,275,3.0,7.0,57,0.00,,,0.00,,2013-07-17 20:43:00,
2013-07-17 15:53:00,91.0,73.0,30.19,WNW,290,4.0,9.0,56,0.00,,,0.00,,2013-07-17 20:53:00,
2013-07-17 16:02:00,92.0,74.0,30.18,WNW,288,4.0,9.0,56,0.00,,,0.00,,2013-07-17 21:02:00,
2013-07-17 16:12:00,92.0,74.0,30.18,WNW,288,4.0,9.0,56,0.00,,,0.00,,2013-07-17 21:12:00,
2013-07-17 16:22:00,91.0,73.0,30.18,WSW,250,4.0,9.0,56,0.00,,,0.00,,2013-07-17 21:22:00,
2013-07-17 16:32:00,92.0,74.0,30.17,SW,220,3.0,8.0,56,0.00,,,0.00,,2013-07-17 21:32:00,
2013-07-17 16:42:00,92.0,74.0,30.17,SW,220,3.0,8.0,56,0.00,,,0.00,,2013-07-17 21:42:00,
2013-07-17 16:53:00,92.0,73.0,30.17,SW,236,4.0,8.0,55,0.00,,,0.00,,2013-07-17 21:53:00,
2013-07-17 17:01:00,91.0,73.0,30.17,WSW,254,4.0,9.0,56,0.00,,,0.00,,2013-07-17 22:01:00,
2013-07-17 17:11:00,91.0,73.0,30.17,WSW,254,4.0,9.0,56,0.00,,,0.00,,2013-07-17 22:11:00,
2013-07-17 17:22:00,91.0,73.0,30.16,West,277,3.0,8.0,56,0.00,,,0.00,,2013-07-17 22:22:00,
2013-07-17 17:32:00,91.0,74.0,30.16,West,259,3.0,9.0,58,0.00,,,0.00,,2013-07-17 22:32:00,
2013-07-17 17:43:00,91.0,74.0,30.16,West,259,3.0,9.0,58,0.00,,,0.00,,2013-07-17 22:43:00,
2013-07-17 17:53:00,91.0,74.0,30.16,West,268,3.0,7.0,57,0.00,,,0.00,,2013-07-17 22:53:00,
2013-07-17 18:02:00,91.0,74.0,30.15,South,186,2.0,7.0,58,0.00,,,0.00,,2013-07-17 23:02:00,
2013-07-17 18:11:00,91.0,74.0,30.15,South,186,2.0,7.0,58,0.00,,,0.00,,2013-07-17 23:11:00,
2013-07-17 18:22:00,90.0,75.0,30.15,WSW,258,2.0,6.0,61,0.00,,,0.00,,2013-07-17 23:22:00,
2013-07-17 18:32:00,89.0,74.0,30.14,West,271,2.0,6.0,62,0.00,,,0.00,,2013-07-17 23:32:00,
2013-07-17 18:43:00,89.0,74.0,30.14,West,271,2.0,6.0,62,0.00,,,0.00,,2013-07-17 23:43:00,
2013-07-17 18:52:00,90.0,75.0,30.14,WSW,248,2.0,5.0,62,0.00,,,0.00,,2013-07-17 23:52:00,
2013-07-17 19:01:00,89.0,74.0,30.14,WSW,240,1.0,6.0,62,0.00,,,0.00,,2013-07-18 00:01:00,
2013-07-17 19:11:00,89.0,74.0,30.14,WSW,240,1.0,6.0,62,0.00,,,0.00,,2013-07-18 00:11:00,
2013-07-17 19:22:00,88.0,75.0,30.14,West,261,1.0,5.0,65,0.00,,,0.00,,2013-07-18 00:22:00,
2013-07-17 19:33:00,88.0,75.0,30.13,SW,234,2.0,6.0,66,0.00,,,0.00,,2013-07-18 00:33:00,
2013-07-17 19:43:00,88.0,75.0,30.13,SW,234,2.0,6.0,66,0.00,,,0.00,,2013-07-18 00:43:00,
2013-07-17 19:52:00,87.0,75.0,30.13,West,262,1.0,4.0,68,0.00,,,0.00,,2013-07-18 00:52:00,
2013-07-17 20:01:00,87.0,76.0,30.13,West,262,1.0,4.0,69,0.00,,,0.00,,2013-07-18 01:01:00,
2013-07-17 20:11:00,87.0,76.0,30.13,West,262,1.0,4.0,69,0.00,,,0.00,,2013-07-18 01:11:00,
2013-07-17 20:22:00,86.0,75.0,30.13,West,261,0.0,3.0,71,0.00,,,0.00,,2013-07-18 01:22:00,
2013-07-17 20:32:00,86.0,75.0,30.13,West,261,0.0,3.0,71,0.00,,,0.00,,2013-07-18 01:32:00,
2013-07-17 20:43:00,86.0,75.0,30.13,West,261,0.0,3.0,71,0.00,,,0.00,,2013-07-18 01:43:00,
2013-07-17 20:53:00,85.0,75.0,30.14,West,261,0.0,1.0,72,0.00,,,0.00,,2013-07-18 01:53:00,
2013-07-17 21:02:00,84.0,75.0,30.13,West,263,0.0,4.0,74,0.00,,,0.00,,2013-07-18 02:02:00,
2013-07-17 21:11:00,84.0,75.0,30.13,West,263,0.0,4.0,74,0.00,,,0.00,,2013-07-18 02:11:00,
2013-07-17 21:22:00,84.0,76.0,30.13,West,263,0.0,1.0,76,0.00,,,0.00,,2013-07-18 02:22:00,
2013-07-17 21:32:00,83.0,74.0,30.13,WNW,283,1.0,3.0,75,0.00,,,0.00,,2013-07-18 02:32:00,
2013-07-17 21:43:00,83.0,74.0,30.13,WNW,283,1.0,3.0,75,0.00,,,0.00,,2013-07-18 02:43:00,
2013-07-17 21:52:00,83.0,74.0,30.13,WNW,283,0.0,1.0,75,0.00,,,0.00,,2013-07-18 02:52:00,
2013-07-17 22:01:00,83.0,75.0,30.14,WNW,283,0.0,2.0,76,0.00,,,0.00,,2013-07-18 03:01:00,
2013-07-17 22:11:00,83.0,75.0,30.14,WNW,283,0.0,2.0,76,0.00,,,0.00,,2013-07-18 03:11:00,
2013-07-17 22:22:00,82.0,74.0,30.14,WNW,283,0.0,2.0,77,0.00,,,0.00,,2013-07-18 03:22:00,
2013-07-17 22:32:00,81.0,74.0,30.14,WNW,283,0.0,1.0,79,0.00,,,0.00,,2013-07-18 03:32:00,
2013-07-17 22:43:00,81.0,74.0,30.14,WNW,283,0.0,1.0,79,0.00,,,0.00,,2013-07-18 03:43:00,
2013-07-17 22:52:00,81.0,74.0,30.14,West,265,0.0,2.0,80,0.00,,,0.00,,2013-07-18 03:52:00,
2013-07-17 23:02:00,80.0,73.0,30.14,West,265,0.0,1.0,80,0.00,,,0.00,,2013-07-18 04:02:00,
2013-07-17 23:12:00,80.0,73.0,30.14,West,265,0.0,1.0,80,0.00,,,0.00,,2013-07-18 04:12:00,
2013-07-17 23:22:00,80.0,73.0,30.14,West,265,0.0,1.0,80,0.00,,,0.00,,2013-07-18 04:22:00,
2013-07-17 23:43:00,80.0,73.0,30.14,West,265,0.0,0.0,80,0.00,,,0.00,,2013-07-18 04:43:00,
2013-07-17 23:52:00,80.0,74.0,30.14,West,265,0.0,0.0,81,0.00,,,0.00,,2013-07-18 04:52:00,